Wind_Speed
2 2 2 3 5 7 9 10 10 10 9 9 10 10 11 11 11 11 12 12 11 11 10 10 10 9 9 9 8 8 8 7 7 6 6 6 6 7 7 7 7 8 8
3 2 2 3 5 6 8 10 10 10 10 10 10 10 11 11 10 11 12 11 11 11 10 10 10 9 8 8 8 7 7 7 6 6 6 6 6 7 7 7 7 8 8
2 1 1 3 5 6 8 9 10 10 10 10 10 10 11 11 10 10 10 11 11 11 11 10 10 9 8 8 7 7 7 6 6 5 6 6 7 7 7 7 7 7 7
2 1 1 3 4 6 7 7 9 10 10 11 11 10 11 11 10 10 10 11 12 11 10 9 9 8 7 8 7 6 6 6 5 5 6 6 6 6 6 6 7 6 6
2 2 1 3 4 5 6 7 9 9 10 11 10 11 11 11 10 9 10 10 11 10 10 9 9 7 7 7 6 5 6 6 6 6 6 6 6 6 6 6 6 6 6
3 2 2 3 4 5 5 7 9 9 10 10 10 11 12 12 10 9 10 10 10 10 9 9 8 8 7 7 6 6 7 6 6 6 6 6 5 5 5 5 5 5 4
4 4 4 4 4 4 7 8 9 9 10 10 11 11 12 11 11 10 10 10 10 9 9 8 9 8 7 6 5 6 6 5 5 5 5 5 4 4 4 4 4 3 3
7 6 5 5 4 5 7 8 8 9 9 10 11 12 12 11 10 10 10 10 9 9 9 9 9 8 7 6 5 6 5 5 5 5 5 5 4 4 4 3 3 2 2
7 6 5 4 5 5 5 6 7 9 9 10 11 11 11 10 10 10 10 9 9 9 8 8 7 7 6 6 6 5 5 5 5 5 5 4 4 3 3 2 1 1 1
9 7 5 4 5 6 5 4 7 9 9 10 11 11 10 10 10 9 9 9 8 8 8 7 6 5 5 5 6 6 5 5 4 4 4 3 3 2 2 1 1 1 1
11 9 6 4 5 6 6 5 7 8 10 10 10 10 9 9 9 8 8 7 7 7 6 6 5 4 5 6 6 6 5 4 4 4 3 3 2 2 1 1 1 1 2
11 10 8 6 7 6 6 5 7 7 8 8 9 9 9 9 8 8 7 6 6 6 5 4 5 4 4 5 5 5 5 4 4 4 3 3 3 2 2 2 2 3 3
11 11 10 8 8 7 6 5 6 5 6 7 8 8 8 8 7 7 7 6 6 5 5 4 5 5 5 5 5 4 4 4 4 3 3 2 2 3 3 3 4 4 4
12 11 10 9 8 6 6 5 5 5 6 6 7 7 7 8 7 7 7 6 6 5 4 4 3 4 4 4 3 3 2 3 3 3 3 2 3 3 4 5 5 5 5
11 10 9 9 7 6 5 5 5 4 5 5 6 6 6 6 6 7 6 6 5 4 4 3 2 3 3 3 3 3 3 2 2 3 3 3 4 4 5 5 5 5 6
11 11 10 9 8 6 5 4 4 3 4 5 5 5 5 5 5 6 5 5 5 4 3 3 2 3 4 3 3 3 2 2 2 2 2 3 3 4 4 4 5 5 5
11 10 10 9 9 6 4 4 3 2 3 4 5 4 5 4 4 4 4 4 4 4 3 3 3 3 4 3 3 3 3 3 3 2 2 3 4 4 5 5 5 5 5
11 10 9 8 8 7 5 4 3 3 2 3 4 4 4 4 4 3 4 4 4 4 3 3 3 4 4 4 4 3 3 4 3 3 4 4 5 5 5 5 5 6 6
10 9 9 7 7 7 6 5 4 2 2 3 3 3 3 4 4 3 3 4 4 4 4 3 3 3 4 4 4 3 3 4 4 4 4 5 5 6 6 6 6 7 7
9 9 8 7 7 7 6 5 4 3 2 3 2 2 3 3 4 3 3 3 4 4 4 3 2 3 4 4 4 4 4 4 5 5 5 5 5 6 6 7 7 7 7
9 8 8 7 6 6 5 5 3 3 2 2 1 1 2 3 3 3 4 4 3 3 3 3 3 4 5 5 5 5 5 5 5 5 5 6 6 7 7 7 7 7 8
8 8 7 7 6 6 5 4 4 3 2 1 1 1 2 2 3 4 4 4 3 3 3 4 4 4 6 6 6 6 5 5 6 6 6 7 7 8 7 7 8 9 9
8 7 7 7 7 7 6 5 4 4 4 3 3 3 3 2 2 3 4 5 5 4 4 5 5 6 7 7 7 6 7 7 8 8 8 9 9 9 9 9 10 10 10
8 8 8 8 8 7 7 6 6 6 5 4 4 5 5 4 5 5 5 6 6 6 6 6 7 8 8 9 8 8 9 9 10 10 10 10 10 10 10 10 11 11 11
10 10 9 9 9 8 8 7 7 7 7 6 6 6 6 6 6 7 7 7 7 7 7 8 8 8 9 10 10 10 10 10 11 11 12 12 12 13 13 13 12 12 13
12 12 12 11 11 10 10 9 9 8 8 8 8 8 8 8 8 8 8 8 9 9 9 9 10 10 11 11 11 12 12 13 13 14 13 14 14 15 15 15 15 15 15
Wind_Direction
323 275 239 198 192 189 188 185 183 182 182 178 170 167 160 157 158 163 163 163 162 156 150 145 139 138 133 129 127 127 124 116 110 109 109 106 104 100 100 97 91 88 88
333 292 233 188 180 187 188 185 183 178 174 173 167 164 162 159 159 165 169 166 164 159 155 149 141 140 136 133 130 128 126 121 117 116 116 116 108 102 99 96 90 88 89
345 340 173 172 172 180 184 181 180 174 173 171 169 169 165 161 157 163 167 165 164 160 158 153 145 143 134 133 132 128 125 122 124 122 120 121 113 103 94 91 91 88 86
4 35 141 169 172 170 174 176 175 173 172 172 169 167 168 166 161 163 165 165 163 163 159 157 149 141 134 135 135 131 129 125 128 129 121 122 114 100 95 95 94 88 83
15 17 100 151 172 178 177 182 180 180 179 176 176 170 166 162 159 159 162 167 164 162 160 154 147 140 135 138 137 135 137 136 133 134 132 121 112 105 102 98 95 87 81
42 50 80 125 156 165 168 175 173 179 180 175 174 169 162 160 158 157 160 162 159 157 154 151 147 138 135 138 140 140 141 138 136 142 137 116 111 114 110 103 94 87 82
54 59 82 105 120 150 162 165 169 173 170 170 167 166 163 163 160 159 160 161 156 154 155 155 148 139 139 140 145 143 140 142 140 140 126 117 112 115 121 114 104 91 78
38 56 79 96 109 142 158 164 171 170 166 165 165 164 166 165 163 160 158 159 155 153 157 157 152 143 141 145 149 147 152 150 143 141 132 126 121 116 123 121 112 95 67
39 55 70 98 101 121 154 169 171 168 169 164 167 166 164 164 159 158 159 163 160 165 168 164 160 156 153 156 161 157 162 150 144 139 143 138 129 122 118 124 116 83 16
37 46 67 89 103 111 128 144 161 168 170 167 168 168 165 164 160 160 162 162 162 169 174 174 169 168 157 161 167 165 159 151 150 142 146 152 147 140 132 137 130 31 355
41 44 56 77 89 99 113 130 142 153 163 167 169 171 168 167 163 163 162 161 160 172 178 177 171 176 170 171 169 169 165 158 153 153 166 188 193 192 212 229 272 312 318
44 42 51 72 79 89 104 124 137 146 156 164 169 173 174 170 166 166 166 169 173 176 179 180 181 182 180 175 173 175 180 179 178 175 185 206 221 231 242 260 273 285 296
42 43 45 59 69 78 90 105 120 137 154 162 166 169 173 175 174 173 177 180 178 182 184 176 172 178 182 180 185 188 189 195 195 196 207 223 234 248 267 272 271 274 289
40 43 46 49 55 66 81 90 117 133 141 152 164 170 172 178 179 179 185 186 182 182 186 188 180 190 190 182 186 190 191 197 205 206 220 236 243 257 271 276 276 277 289
38 43 41 41 46 55 69 89 110 139 149 148 154 164 170 178 185 186 189 190 192 196 193 182 176 186 192 188 181 181 183 191 208 225 239 249 258 262 270 276 275 280 286
38 40 40 38 46 55 69 82 93 114 150 159 160 166 166 165 171 177 187 186 186 195 199 194 206 210 216 206 186 187 198 202 210 226 255 271 280 279 279 280 277 280 288
36 36 37 38 39 49 63 73 72 95 126 166 171 173 175 171 172 182 186 189 196 209 221 219 220 219 218 210 200 210 217 228 235 250 268 296 286 286 288 283 282 282 283
32 33 34 36 39 43 48 53 62 76 106 151 171 174 177 177 184 190 195 204 208 217 228 227 222 221 221 225 226 238 243 246 251 264 270 283 292 294 298 298 296 298 296
24 27 28 31 35 39 43 40 48 69 105 137 156 174 187 194 199 206 208 222 232 227 226 227 226 227 233 234 239 255 259 260 271 275 280 287 290 292 295 297 295 296 296
13 16 18 20 27 32 33 35 41 54 84 123 139 161 192 202 206 216 231 243 240 229 224 226 229 237 244 247 262 264 259 269 286 287 290 287 292 294 296 294 290 292 293
2 5 9 12 13 14 18 26 31 42 63 93 104 176 208 210 221 233 234 238 239 230 231 230 243 259 266 273 275 271 267 269 276 275 278 282 290 296 295 291 290 293 294
350 355 360 1 359 357 346 350 6 8 354 315 299 293 262 253 250 246 244 247 247 251 256 253 261 272 276 278 276 273 275 273 273 275 282 290 291 296 292 288 286 289 290
340 346 348 345 342 343 336 327 324 324 323 306 289 299 288 271 272 276 266 257 262 270 270 265 267 277 280 275 274 273 275 276 278 278 285 292 296 296 293 288 287 289 290
326 326 328 334 334 331 331 317 304 300 297 296 300 307 306 300 287 286 274 266 268 270 272 276 276 277 277 271 274 275 277 277 280 285 286 288 293 296 294 291 289 290 289
313 314 315 316 319 317 312 309 303 293 288 289 293 294 294 296 293 287 285 276 271 272 273 275 278 281 282 278 276 278 282 281 282 283 285 288 292 294 293 293 292 292 290
303 307 310 308 308 306 307 304 301 299 291 289 288 286 286 284 287 284 280 277 270 271 273 275 278 278 279 280 279 280 282 284 285 287 284 286 287 289 292 292 292 291 292
Height
5861 5860 5860 5859 5859 5860 5861 5864 5867 5869 5870 5871 5873 5874 5876 5877 5879 5880 5882 5884 5885 5886 5888 5889 5890 5892 5893 5894 5895 5896 5897 5897 5898 5899 5900 5900 5901 5902 5902 5903 5903 5903 5904
5861 5860 5859 5859 5859 5860 5861 5864 5867 5869 5870 5872 5874 5875 5876 5878 5879 5881 5883 5884 5885 5887 5888 5889 5891 5893 5894 5895 5896 5897 5898 5898 5899 5900 5901 5901 5902 5903 5903 5904 5904 5905 5905
5862 5861 5860 5859 5860 5861 5862 5864 5867 5869 5870 5872 5874 5875 5877 5878 5880 5882 5883 5885 5886 5888 5889 5891 5892 5893 5895 5896 5897 5898 5898 5899 5900 5901 5901 5902 5903 5904 5905 5905 5906 5906 5907
5863 5862 5861 5861 5861 5862 5864 5866 5867 5869 5870 5872 5874 5876 5878 5879 5881 5882 5884 5885 5887 5889 5890 5892 5893 5894 5896 5896 5897 5898 5899 5900 5901 5902 5902 5903 5904 5905 5906 5906 5907 5907 5908
5864 5863 5861 5862 5863 5864 5865 5866 5868 5869 5871 5873 5875 5877 5878 5880 5882 5883 5885 5886 5888 5889 5891 5892 5894 5895 5896 5897 5898 5899 5900 5901 5902 5902 5903 5904 5905 5906 5906 5907 5908 5908 5909
5865 5864 5864 5864 5864 5865 5866 5867 5868 5870 5871 5873 5875 5877 5879 5881 5883 5884 5885 5887 5889 5890 5892 5893 5894 5896 5897 5898 5899 5900 5901 5902 5903 5904 5905 5905 5906 5906 5907 5908 5908 5909 5909
5866 5865 5864 5865 5865 5866 5866 5868 5869 5871 5872 5874 5876 5878 5880 5882 5884 5885 5886 5888 5890 5891 5893 5894 5895 5896 5897 5898 5899 5901 5902 5902 5903 5904 5905 5906 5907 5907 5908 5908 5909 5909 5910
5867 5866 5866 5866 5866 5867 5867 5869 5870 5871 5873 5875 5877 5879 5881 5883 5884 5886 5887 5889 5891 5892 5893 5895 5896 5897 5898 5899 5900 5901 5902 5903 5904 5905 5906 5907 5908 5908 5908 5909 5909 5910 5910
5869 5868 5867 5867 5867 5868 5869 5869 5870 5872 5874 5876 5878 5880 5882 5884 5885 5887 5889 5890 5892 5893 5894 5895 5897 5898 5899 5899 5900 5901 5903 5903 5905 5906 5907 5907 5908 5909 5909 5909 5910 5910 5911
5870 5870 5869 5869 5869 5869 5869 5869 5870 5872 5874 5876 5879 5881 5883 5884 5886 5888 5890 5892 5893 5894 5895 5896 5897 5898 5899 5900 5901 5902 5903 5904 5906 5906 5907 5908 5909 5909 5910 5910 5910 5910 5911
5872 5871 5871 5870 5870 5870 5871 5870 5871 5873 5875 5877 5880 5882 5883 5885 5887 5889 5891 5892 5893 5894 5895 5897 5898 5899 5900 5901 5902 5903 5904 5905 5906 5907 5908 5908 5909 5910 5910 5910 5910 5910 5911
5874 5873 5873 5872 5871 5872 5872 5872 5873 5875 5876 5878 5880 5882 5884 5886 5888 5890 5891 5893 5894 5895 5896 5897 5898 5899 5900 5901 5902 5903 5905 5906 5907 5907 5908 5908 5909 5909 5910 5910 5910 5910 5911
5876 5876 5875 5874 5874 5874 5874 5875 5875 5876 5878 5879 5881 5883 5885 5886 5888 5890 5891 5893 5894 5896 5897 5898 5899 5900 5900 5901 5902 5903 5905 5906 5907 5907 5908 5908 5909 5909 5909 5910 5910 5910 5910
5879 5878 5877 5877 5876 5876 5877 5877 5877 5879 5879 5881 5882 5884 5885 5887 5889 5890 5892 5893 5895 5896 5897 5898 5899 5900 5901 5902 5902 5904 5905 5906 5907 5907 5907 5908 5908 5908 5909 5909 5909 5909 5909
5881 5880 5879 5879 5878 5878 5879 5879 5879 5880 5881 5882 5884 5885 5887 5888 5890 5891 5892 5893 5895 5896 5897 5898 5899 5900 5901 5902 5903 5904 5905 5905 5906 5907 5907 5907 5907 5908 5908 5908 5908 5908 5908
5883 5882 5881 5881 5880 5880 5880 5881 5881 5881 5882 5883 5884 5886 5888 5889 5890 5891 5893 5894 5895 5896 5897 5898 5899 5900 5901 5902 5903 5904 5905 5905 5906 5907 5907 5907 5907 5907 5907 5907 5907 5907 5907
5885 5884 5883 5883 5882 5882 5882 5882 5882 5882 5883 5884 5885 5887 5888 5890 5891 5892 5893 5894 5895 5896 5897 5898 5899 5900 5901 5902 5903 5904 5904 5905 5906 5906 5906 5906 5907 5906 5906 5906 5906 5906 5906
5887 5886 5885 5885 5884 5884 5884 5883 5883 5883 5883 5884 5886 5887 5889 5890 5891 5892 5893 5895 5895 5896 5897 5898 5899 5900 5901 5901 5902 5903 5904 5904 5905 5905 5906 5906 5906 5906 5905 5905 5905 5905 5905
5888 5888 5887 5886 5886 5885 5885 5884 5884 5884 5884 5885 5886 5888 5889 5890 5891 5892 5893 5895 5895 5896 5897 5898 5899 5900 5900 5901 5902 5903 5903 5904 5904 5904 5905 5905 5905 5905 5904 5904 5904 5904 5904
5889 5889 5888 5888 5887 5887 5886 5886 5885 5885 5885 5886 5887 5889 5890 5891 5892 5893 5893 5894 5895 5896 5897 5897 5898 5899 5900 5901 5901 5902 5902 5903 5903 5903 5903 5903 5903 5903 5903 5903 5903 5902 5902
5890 5889 5889 5888 5888 5888 5887 5887 5887 5887 5887 5888 5888 5889 5890 5891 5892 5893 5894 5894 5895 5895 5896 5897 5898 5899 5899 5900 5901 5901 5901 5901 5902 5902 5902 5902 5902 5902 5901 5901 5901 5901 5901
5891 5890 5889 5889 5889 5888 5888 5888 5887 5888 5888 5889 5889 5890 5890 5891 5891 5892 5893 5894 5894 5895 5896 5897 5897 5898 5899 5899 5899 5899 5900 5900 5900 5900 5900 5900 5900 5900 5900 5899 5899 5899 5899
5891 5890 5890 5889 5889 5889 5888 5888 5888 5888 5888 5889 5889 5890 5890 5891 5891 5892 5893 5893 5894 5894 5895 5896 5896 5897 5897 5897 5897 5898 5898 5899 5899 5899 5899 5898 5898 5898 5898 5897 5897 5897 5897
5891 5890 5890 5889 5889 5889 5888 5888 5888 5888 5888 5889 5889 5889 5890 5890 5890 5891 5892 5892 5892 5893 5894 5894 5895 5895 5896 5896 5896 5896 5897 5897 5897 5897 5897 5896 5896 5896 5895 5895 5894 5894 5894
5890 5890 5889 5889 5889 5888 5888 5888 5888 5888 5888 5888 5888 5889 5889 5889 5889 5890 5890 5890 5891 5892 5892 5893 5893 5893 5893 5894 5894 5894 5894 5894 5894 5894 5894 5893 5893 5893 5892 5892 5891 5891 5891
5889 5889 5888 5888 5888 5887 5887 5887 5887 5886 5886 5887 5887 5887 5888 5888 5888 5888 5888 5888 5889 5890 5890 5891 5891 5891 5891 5891 5891 5891 5891 5891 5891 5891 5891 5890 5890 5889 5889 5888 5888 5888 5888